Location: Peach Mountain Observatory
(42.3967°N, 83.9367°W)
Time: 01:26:43
(UTC-05:00)

Explorer 11/Cluster Stage 4 - Visible Passes

Search period start: 26 January 2020 00:00
Search period end: 05 February 2020 00:00
Orbit: 467 x 1259 km, 28.8° (Epoch: 25 January)

Date Brightness Start Highest point End Pass type
(mag) Time Alt. Az. Time Alt. Az. Time Alt. Az.
26 Jan 9.5 18:58:47 10° SW 19:01:23 12° SSW 19:03:49 10° S visible
27 Jan 9.7 18:48:19 10° SW 18:50:24 11° SSW 18:52:23 10° SSW visible
28 Jan 9.9 18:38:18 10° SW 18:39:24 10° SSW 18:40:29 10° SSW visible
